sat.trackr.live / text

‹ back to catalog

ONEWEB-0410

NORAD 51622 · 2022-012A

PAYLOAD ACTIVE UNKNOWN

§ Identity

Operator
Country
UK
Launch date
2022-02-10
Launch site
FRGUI
Launch vehicle
Mass (kg)
RCS (m²)

Purposes: comms

External: N2YO · Heavens-Above · Gunter

§ Orbital elements

Epoch: 2026-05-25T03:11:03.653088Z

Period
109.29 min
Inclination
87.9164°
Eccentricity
0.0003058
Mean motion
13.17650931 rev/d
Perigee alt
1,191.4 km
Apogee alt
1,196.0 km
Semi-major
7,571.8 km
B*
1.2883e-4
RAAN
10.4397°
Arg perigee
97.6431°
Mean anomaly
262.5048°
Rev number
21,066

§ Raw data

ONEWEB-04101 51622U 22012A   26145.13268117  .00000063  00000+0  12883-3 0  99932 51622  87.9164  10.4397 0003058  97.6431 262.5048 13.17650931210661

JSON: /api/v1/satellites/51622 · /tle

For live sub-satellite position, see the globe view (requires WebGL).

§ Visibility from observer

Set your observer location to see the next 7 days of passes ≥ 10°. The values pass through the URL so the page stays shareable.

No JS? Fill the form by hand. The geolocation button needs JavaScript.